owner,sensor,date,latitude,longitude,sea_surface_height_above_sea_level,qcFlag 
TCOON,ioos:station:TCOON:518:1,2016-05-01T00:18:00Z,29.5150,-94.5133,1.94,1111122 
TCOON,ioos:station:TCOON:518:1,2016-05-01T01:18:00Z,29.5150,-94.5133,1.856,1111122 
TCOON,ioos:station:TCOON:518:1,2016-05-01T02:18:00Z,29.5150,-94.5133,1.802,1111122 
TCOON,ioos:station:TCOON:518:1,2016-05-01T03:18:00Z,29.5150,-94.5133,1.803,1111122 
TCOON,ioos:station:TCOON:518:1,2016-05-01T04:18:00Z,29.5150,-94.5133,1.788,1111122 
TCOON,ioos:station:TCOON:518:1,2016-05-01T05:18:00Z,29.5150,-94.5133,1.765,1111122 
TCOON,ioos:station:TCOON:518:1,2016-05-01T06:18:00Z,29.5150,-94.5133,1.761,1111122 
TCOON,ioos:station:TCOON:518:1,2016-05-01T07:18:00Z,29.5150,-94.5133,1.732,1111122 
TCOON,ioos:station:TCOON:518:1,2016-05-01T08:18:00Z,29.5150,-94.5133,1.699,1111122 
TCOON,ioos:station:TCOON:518:1,2016-05-01T09:18:00Z,29.5150,-94.5133,1.69,1111122 
TCOON,ioos:station:TCOON:518:1,2016-05-01T10:18:00Z,29.5150,-94.5133,1.645,1111122 
TCOON,ioos:station:TCOON:518:1,2016-05-01T11:18:00Z,29.5150,-94.5133,1.64,1111122 
TCOON,ioos:station:TCOON:518:1,2016-05-01T12:18:00Z,29.5150,-94.5133,1.614,1111122 
TCOON,ioos:station:TCOON:518:1,2016-05-01T13:18:00Z,29.5150,-94.5133,1.609,1111122 
TCOON,ioos:station:TCOON:518:1,2016-05-01T14:18:00Z,29.5150,-94.5133,1.606,1111122 
TCOON,ioos:station:TCOON:518:1,2016-05-01T15:18:00Z,29.5150,-94.5133,1.668,1111122 
TCOON,ioos:station:TCOON:518:1,2016-05-01T16:18:00Z,29.5150,-94.5133,1.72,1111122 
TCOON,ioos:station:TCOON:518:1,2016-05-01T17:18:00Z,29.5150,-94.5133,1.778,1111122 
TCOON,ioos:station:TCOON:518:1,2016-05-01T18:18:00Z,29.5150,-94.5133,1.793,1111122 
TCOON,ioos:station:TCOON:518:1,2016-05-01T19:18:00Z,29.5150,-94.5133,1.807,1111122 
TCOON,ioos:station:TCOON:518:1,2016-05-01T20:18:00Z,29.5150,-94.5133,1.788,1111122 
TCOON,ioos:station:TCOON:518:1,2016-05-01T21:18:00Z,29.5150,-94.5133,1.74,1111122 
TCOON,ioos:station:TCOON:518:1,2016-05-01T22:18:00Z,29.5150,-94.5133,1.734,1111122 
TCOON,ioos:station:TCOON:518:1,2016-05-01T23:18:00Z,29.5150,-94.5133,1.739,1111122 
TCOON,ioos:station:TCOON:518:1,2016-05-02T00:18:00Z,29.5150,-94.5133,1.783,1111122 
TCOON,ioos:station:TCOON:518:1,2016-05-02T01:18:00Z,29.5150,-94.5133,1.768,1111122 
TCOON,ioos:station:TCOON:518:1,2016-05-02T02:18:00Z,29.5150,-94.5133,1.77,1111122 
TCOON,ioos:station:TCOON:518:1,2016-05-02T03:18:00Z,29.5150,-94.5133,1.838,1111122 
TCOON,ioos:station:TCOON:518:1,2016-05-02T04:18:00Z,29.5150,-94.5133,1.927,1111122 
TCOON,ioos:station:TCOON:518:1,2016-05-02T05:18:00Z,29.5150,-94.5133,1.943,1111122 
TCOON,ioos:station:TCOON:518:1,2016-05-02T06:18:00Z,29.5150,-94.5133,1.999,1111122 
TCOON,ioos:station:TCOON:518:1,2016-05-02T07:18:00Z,29.5150,-94.5133,2.075,1111122 
TCOON,ioos:station:TCOON:518:1,2016-05-02T08:18:00Z,29.5150,-94.5133,2.126,1111122 
TCOON,ioos:station:TCOON:518:1,2016-05-02T09:18:00Z,29.5150,-94.5133,2.073,1111122 
TCOON,ioos:station:TCOON:518:1,2016-05-02T10:18:00Z,29.5150,-94.5133,2.054,1111122 
TCOON,ioos:station:TCOON:518:1,2016-05-02T11:18:00Z,29.5150,-94.5133,2.075,1111122 
TCOON,ioos:station:TCOON:518:1,2016-05-02T12:18:00Z,29.5150,-94.5133,2.045,1111122 
TCOON,ioos:station:TCOON:518:1,2016-05-02T13:18:00Z,29.5150,-94.5133,1.974,1111122 
TCOON,ioos:station:TCOON:518:1,2016-05-02T14:18:00Z,29.5150,-94.5133,1.918,1111122 
TCOON,ioos:station:TCOON:518:1,2016-05-02T15:18:00Z,29.5150,-94.5133,1.9,1111122 
TCOON,ioos:station:TCOON:518:1,2016-05-02T16:18:00Z,29.5150,-94.5133,1.885,1111122 
TCOON,ioos:station:TCOON:518:1,2016-05-02T17:18:00Z,29.5150,-94.5133,1.983,1111122 
TCOON,ioos:station:TCOON:518:1,2016-05-02T18:18:00Z,29.5150,-94.5133,1.95,1111122 
TCOON,ioos:station:TCOON:518:1,2016-05-02T19:18:00Z,29.5150,-94.5133,1.881,1111122 
TCOON,ioos:station:TCOON:518:1,2016-05-02T20:18:00Z,29.5150,-94.5133,1.84,1111122 
TCOON,ioos:station:TCOON:518:1,2016-05-02T21:18:00Z,29.5150,-94.5133,1.73,1111122 
TCOON,ioos:station:TCOON:518:1,2016-05-02T22:18:00Z,29.5150,-94.5133,1.673,1111122 
TCOON,ioos:station:TCOON:518:1,2016-05-02T23:18:00Z,29.5150,-94.5133,1.78,1111122 
TCOON,ioos:station:TCOON:518:1,2016-05-03T00:18:00Z,29.5150,-94.5133,1.759,1111122 
TCOON,ioos:station:TCOON:518:1,2016-05-03T01:18:00Z,29.5150,-94.5133,1.692,1111122 
TCOON,ioos:station:TCOON:518:1,2016-05-03T02:18:00Z,29.5150,-94.5133,1.693,1111122 
TCOON,ioos:station:TCOON:518:1,2016-05-03T03:18:00Z,29.5150,-94.5133,1.696,1111122 
TCOON,ioos:station:TCOON:518:1,2016-05-03T04:18:00Z,29.5150,-94.5133,1.663,1111122 
TCOON,ioos:station:TCOON:518:1,2016-05-03T05:18:00Z,29.5150,-94.5133,1.597,1111122 
TCOON,ioos:station:TCOON:518:1,2016-05-03T06:18:00Z,29.5150,-94.5133,1.582,1111122 
TCOON,ioos:station:TCOON:518:1,2016-05-03T07:18:00Z,29.5150,-94.5133,1.646,1111122 
TCOON,ioos:station:TCOON:518:1,2016-05-03T08:18:00Z,29.5150,-94.5133,1.661,1111122 
TCOON,ioos:station:TCOON:518:1,2016-05-03T09:18:00Z,29.5150,-94.5133,1.692,1111122 
TCOON,ioos:station:TCOON:518:1,2016-05-03T10:18:00Z,29.5150,-94.5133,1.709,1111122 
TCOON,ioos:station:TCOON:518:1,2016-05-03T11:18:00Z,29.5150,-94.5133,1.703,1111122 
TCOON,ioos:station:TCOON:518:1,2016-05-03T12:18:00Z,29.5150,-94.5133,1.666,1111122 
TCOON,ioos:station:TCOON:518:1,2016-05-03T13:18:00Z,29.5150,-94.5133,1.601,1111122 
TCOON,ioos:station:TCOON:518:1,2016-05-03T14:18:00Z,29.5150,-94.5133,1.565,1111122 
TCOON,ioos:station:TCOON:518:1,2016-05-03T15:18:00Z,29.5150,-94.5133,1.535,1111122 
TCOON,ioos:station:TCOON:518:1,2016-05-03T16:18:00Z,29.5150,-94.5133,1.546,1111122 
TCOON,ioos:station:TCOON:518:1,2016-05-03T17:18:00Z,29.5150,-94.5133,1.601,1111122 
TCOON,ioos:station:TCOON:518:1,2016-05-03T18:24:00Z,29.5150,-94.5133,1.64,1111122 
TCOON,ioos:station:TCOON:518:1,2016-05-03T19:18:00Z,29.5150,-94.5133,1.673,1111122 
TCOON,ioos:station:TCOON:518:1,2016-05-03T20:18:00Z,29.5150,-94.5133,1.746,1111122 
TCOON,ioos:station:TCOON:518:1,2016-05-03T21:18:00Z,29.5150,-94.5133,1.789,1111122 
TCOON,ioos:station:TCOON:518:1,2016-05-03T22:18:00Z,29.5150,-94.5133,1.792,1111122 
TCOON,ioos:station:TCOON:518:1,2016-05-03T23:18:00Z,29.5150,-94.5133,1.812,1111122 
TCOON,ioos:station:TCOON:518:1,2016-05-04T00:18:00Z,29.5150,-94.5133,1.78,1111122 
TCOON,ioos:station:TCOON:518:1,2016-05-04T01:18:00Z,29.5150,-94.5133,1.702,1111122 
TCOON,ioos:station:TCOON:518:1,2016-05-04T02:18:00Z,29.5150,-94.5133,1.65,1111122 
TCOON,ioos:station:TCOON:518:1,2016-05-04T03:18:00Z,29.5150,-94.5133,1.606,1111122 
TCOON,ioos:station:TCOON:518:1,2016-05-04T04:18:00Z,29.5150,-94.5133,1.573,1111122 
TCOON,ioos:station:TCOON:518:1,2016-05-04T05:18:00Z,29.5150,-94.5133,1.525,1111122 
TCOON,ioos:station:TCOON:518:1,2016-05-04T06:18:00Z,29.5150,-94.5133,1.518,1111122 
TCOON,ioos:station:TCOON:518:1,2016-05-04T07:18:00Z,29.5150,-94.5133,1.577,1111122 
TCOON,ioos:station:TCOON:518:1,2016-05-04T08:18:00Z,29.5150,-94.5133,1.636,1111122 
TCOON,ioos:station:TCOON:518:1,2016-05-04T09:18:00Z,29.5150,-94.5133,1.674,1111122 
TCOON,ioos:station:TCOON:518:1,2016-05-04T10:18:00Z,29.5150,-94.5133,1.675,1111122 
TCOON,ioos:station:TCOON:518:1,2016-05-04T11:18:00Z,29.5150,-94.5133,1.654,1111122 
TCOON,ioos:station:TCOON:518:1,2016-05-04T12:18:00Z,29.5150,-94.5133,1.664,1111122 
TCOON,ioos:station:TCOON:518:1,2016-05-04T13:18:00Z,29.5150,-94.5133,1.671,1111122 
TCOON,ioos:station:TCOON:518:1,2016-05-04T14:18:00Z,29.5150,-94.5133,1.646,1111122 
TCOON,ioos:station:TCOON:518:1,2016-05-04T15:18:00Z,29.5150,-94.5133,1.596,1111122 
TCOON,ioos:station:TCOON:518:1,2016-05-04T16:18:00Z,29.5150,-94.5133,1.562,1111122 
TCOON,ioos:station:TCOON:518:1,2016-05-04T17:18:00Z,29.5150,-94.5133,1.545,1111122 
TCOON,ioos:station:TCOON:518:1,2016-05-04T18:18:00Z,29.5150,-94.5133,1.57,1111122 
TCOON,ioos:station:TCOON:518:1,2016-05-04T19:18:00Z,29.5150,-94.5133,1.609,1111122 
TCOON,ioos:station:TCOON:518:1,2016-05-04T20:18:00Z,29.5150,-94.5133,1.665,1111122 
TCOON,ioos:station:TCOON:518:1,2016-05-04T21:18:00Z,29.5150,-94.5133,1.713,1111122 
TCOON,ioos:station:TCOON:518:1,2016-05-04T22:18:00Z,29.5150,-94.5133,1.689,1111122 
TCOON,ioos:station:TCOON:518:1,2016-05-04T23:18:00Z,29.5150,-94.5133,1.74,1111122 
TCOON,ioos:station:TCOON:518:1,2016-05-05T00:18:00Z,29.5150,-94.5133,1.736,1111122 
TCOON,ioos:station:TCOON:518:1,2016-05-05T01:18:00Z,29.5150,-94.5133,1.678,1111122 
TCOON,ioos:station:TCOON:518:1,2016-05-05T02:18:00Z,29.5150,-94.5133,1.597,1111122 
TCOON,ioos:station:TCOON:518:1,2016-05-05T03:18:00Z,29.5150,-94.5133,1.498,1111122 
TCOON,ioos:station:TCOON:518:1,2016-05-05T04:18:00Z,29.5150,-94.5133,1.451,1111122 
TCOON,ioos:station:TCOON:518:1,2016-05-05T05:18:00Z,29.5150,-94.5133,1.442,1111122 
TCOON,ioos:station:TCOON:518:1,2016-05-05T06:24:00Z,29.5150,-94.5133,1.437,1111122 
TCOON,ioos:station:TCOON:518:1,2016-05-05T07:18:00Z,29.5150,-94.5133,1.487,1111122 
TCOON,ioos:station:TCOON:518:1,2016-05-05T08:18:00Z,29.5150,-94.5133,1.567,1111122 
TCOON,ioos:station:TCOON:518:1,2016-05-05T09:18:00Z,29.5150,-94.5133,1.657,1111122 
TCOON,ioos:station:TCOON:518:1,2016-05-05T10:18:00Z,29.5150,-94.5133,1.686,1111122 
TCOON,ioos:station:TCOON:518:1,2016-05-05T11:24:00Z,29.5150,-94.5133,1.704,1111122 
TCOON,ioos:station:TCOON:518:1,2016-05-05T12:18:00Z,29.5150,-94.5133,1.693,1111122 
TCOON,ioos:station:TCOON:518:1,2016-05-05T13:18:00Z,29.5150,-94.5133,1.669,1111122 
TCOON,ioos:station:TCOON:518:1,2016-05-05T14:18:00Z,29.5150,-94.5133,1.629,1111122 
TCOON,ioos:station:TCOON:518:1,2016-05-05T15:18:00Z,29.5150,-94.5133,1.578,1111122 
TCOON,ioos:station:TCOON:518:1,2016-05-05T16:18:00Z,29.5150,-94.5133,1.491,1111122 
TCOON,ioos:station:TCOON:518:1,2016-05-05T17:18:00Z,29.5150,-94.5133,1.475,1111122 
TCOON,ioos:station:TCOON:518:1,2016-05-05T18:18:00Z,29.5150,-94.5133,1.456,1111122 
TCOON,ioos:station:TCOON:518:1,2016-05-05T19:18:00Z,29.5150,-94.5133,1.474,1111122 
TCOON,ioos:station:TCOON:518:1,2016-05-05T20:18:00Z,29.5150,-94.5133,1.491,1111122 
TCOON,ioos:station:TCOON:518:1,2016-05-05T21:18:00Z,29.5150,-94.5133,1.534,1111122 
TCOON,ioos:station:TCOON:518:1,2016-05-05T22:18:00Z,29.5150,-94.5133,1.577,1111122 
TCOON,ioos:station:TCOON:518:1,2016-05-05T23:18:00Z,29.5150,-94.5133,1.555,1111122 
TCOON,ioos:station:TCOON:518:1,2016-05-06T00:18:00Z,29.5150,-94.5133,1.511,1111122 
TCOON,ioos:station:TCOON:518:1,2016-05-06T01:18:00Z,29.5150,-94.5133,1.437,1111122 
TCOON,ioos:station:TCOON:518:1,2016-05-06T02:18:00Z,29.5150,-94.5133,1.393,1111122 
TCOON,ioos:station:TCOON:518:1,2016-05-06T03:18:00Z,29.5150,-94.5133,1.347,1111122 
TCOON,ioos:station:TCOON:518:1,2016-05-06T04:18:00Z,29.5150,-94.5133,1.299,1111122 
TCOON,ioos:station:TCOON:518:1,2016-05-06T05:18:00Z,29.5150,-94.5133,1.228,1111122 
TCOON,ioos:station:TCOON:518:1,2016-05-06T06:18:00Z,29.5150,-94.5133,1.243,1111122 
TCOON,ioos:station:TCOON:518:1,2016-05-06T07:18:00Z,29.5150,-94.5133,1.255,1111122 
TCOON,ioos:station:TCOON:518:1,2016-05-06T08:18:00Z,29.5150,-94.5133,1.344,1111122 
TCOON,ioos:station:TCOON:518:1,2016-05-06T09:18:00Z,29.5150,-94.5133,1.46,1111122 
TCOON,ioos:station:TCOON:518:1,2016-05-06T10:18:00Z,29.5150,-94.5133,1.542,1111122 
TCOON,ioos:station:TCOON:518:1,2016-05-06T11:18:00Z,29.5150,-94.5133,1.606,1111122 
TCOON,ioos:station:TCOON:518:1,2016-05-06T12:18:00Z,29.5150,-94.5133,1.682,1111122 
TCOON,ioos:station:TCOON:518:1,2016-05-06T13:18:00Z,29.5150,-94.5133,1.688,1111122 
TCOON,ioos:station:TCOON:518:1,2016-05-06T14:18:00Z,29.5150,-94.5133,1.683,1111122 
TCOON,ioos:station:TCOON:518:1,2016-05-06T15:18:00Z,29.5150,-94.5133,1.693,1111122 
TCOON,ioos:station:TCOON:518:1,2016-05-06T16:18:00Z,29.5150,-94.5133,1.686,1111122 
TCOON,ioos:station:TCOON:518:1,2016-05-06T17:18:00Z,29.5150,-94.5133,1.687,1111122 
TCOON,ioos:station:TCOON:518:1,2016-05-06T18:18:00Z,29.5150,-94.5133,1.623,1111122 
TCOON,ioos:station:TCOON:518:1,2016-05-06T19:18:00Z,29.5150,-94.5133,1.624,1111122 
TCOON,ioos:station:TCOON:518:1,2016-05-06T20:18:00Z,29.5150,-94.5133,1.614,1111122 
TCOON,ioos:station:TCOON:518:1,2016-05-06T21:18:00Z,29.5150,-94.5133,1.626,1111122 
TCOON,ioos:station:TCOON:518:1,2016-05-06T22:18:00Z,29.5150,-94.5133,1.63,1111122 
TCOON,ioos:station:TCOON:518:1,2016-05-06T23:18:00Z,29.5150,-94.5133,1.645,1111122 
TCOON,ioos:station:TCOON:518:1,2016-05-07T00:12:00Z,29.5150,-94.5133,1.616,1111122 
TCOON,ioos:station:TCOON:518:1,2016-05-07T01:18:00Z,29.5150,-94.5133,1.542,1111122 
TCOON,ioos:station:TCOON:518:1,2016-05-07T02:18:00Z,29.5150,-94.5133,1.465,1111122 
TCOON,ioos:station:TCOON:518:1,2016-05-07T03:18:00Z,29.5150,-94.5133,1.38,1111122 
TCOON,ioos:station:TCOON:518:1,2016-05-07T04:18:00Z,29.5150,-94.5133,1.34,1111122 
TCOON,ioos:station:TCOON:518:1,2016-05-07T05:18:00Z,29.5150,-94.5133,1.291,1111122 
TCOON,ioos:station:TCOON:518:1,2016-05-07T06:18:00Z,29.5150,-94.5133,1.281,1111122 
TCOON,ioos:station:TCOON:518:1,2016-05-07T07:18:00Z,29.5150,-94.5133,1.279,1111122 
TCOON,ioos:station:TCOON:518:1,2016-05-07T08:18:00Z,29.5150,-94.5133,1.334,1111122 
TCOON,ioos:station:TCOON:518:1,2016-05-07T09:18:00Z,29.5150,-94.5133,1.444,1111122 
TCOON,ioos:station:TCOON:518:1,2016-05-07T10:18:00Z,29.5150,-94.5133,1.544,1111122 
TCOON,ioos:station:TCOON:518:1,2016-05-07T11:18:00Z,29.5150,-94.5133,1.628,1111122 
TCOON,ioos:station:TCOON:518:1,2016-05-07T12:18:00Z,29.5150,-94.5133,1.661,1111122 
TCOON,ioos:station:TCOON:518:1,2016-05-07T13:18:00Z,29.5150,-94.5133,1.669,1111122 
TCOON,ioos:station:TCOON:518:1,2016-05-07T14:18:00Z,29.5150,-94.5133,1.68,1111122 
TCOON,ioos:station:TCOON:518:1,2016-05-07T15:18:00Z,29.5150,-94.5133,1.684,1111122 
TCOON,ioos:station:TCOON:518:1,2016-05-07T16:18:00Z,29.5150,-94.5133,1.694,1111122 
TCOON,ioos:station:TCOON:518:1,2016-05-07T17:18:00Z,29.5150,-94.5133,1.665,1111122 
TCOON,ioos:station:TCOON:518:1,2016-05-07T18:18:00Z,29.5150,-94.5133,1.631,1111122 
TCOON,ioos:station:TCOON:518:1,2016-05-07T19:18:00Z,29.5150,-94.5133,1.6,1111122 
TCOON,ioos:station:TCOON:518:1,2016-05-07T20:18:00Z,29.5150,-94.5133,1.583,1111122 
TCOON,ioos:station:TCOON:518:1,2016-05-07T21:18:00Z,29.5150,-94.5133,1.592,1111122 
TCOON,ioos:station:TCOON:518:1,2016-05-07T22:18:00Z,29.5150,-94.5133,1.58,1111122 
TCOON,ioos:station:TCOON:518:1,2016-05-07T23:18:00Z,29.5150,-94.5133,1.623,1111122 
TCOON,ioos:station:TCOON:518:1,2016-05-08T00:18:00Z,29.5150,-94.5133,1.639,1111122 
TCOON,ioos:station:TCOON:518:1,2016-05-08T01:18:00Z,29.5150,-94.5133,1.589,1111122 
TCOON,ioos:station:TCOON:518:1,2016-05-08T02:18:00Z,29.5150,-94.5133,1.526,1111122 
TCOON,ioos:station:TCOON:518:1,2016-05-08T03:18:00Z,29.5150,-94.5133,1.462,1111122 
TCOON,ioos:station:TCOON:518:1,2016-05-08T04:18:00Z,29.5150,-94.5133,1.377,1111122 
TCOON,ioos:station:TCOON:518:1,2016-05-08T05:18:00Z,29.5150,-94.5133,1.319,1111122 
TCOON,ioos:station:TCOON:518:1,2016-05-08T06:18:00Z,29.5150,-94.5133,1.279,1111122 
TCOON,ioos:station:TCOON:518:1,2016-05-08T07:18:00Z,29.5150,-94.5133,1.241,1111122 
TCOON,ioos:station:TCOON:518:1,2016-05-08T08:18:00Z,29.5150,-94.5133,1.251,1111122 
TCOON,ioos:station:TCOON:518:1,2016-05-08T09:18:00Z,29.5150,-94.5133,1.34,1111122 
TCOON,ioos:station:TCOON:518:1,2016-05-08T10:18:00Z,29.5150,-94.5133,1.451,1111122 
TCOON,ioos:station:TCOON:518:1,2016-05-08T11:18:00Z,29.5150,-94.5133,1.57,1111122 
TCOON,ioos:station:TCOON:518:1,2016-05-08T12:18:00Z,29.5150,-94.5133,1.687,1111122 
TCOON,ioos:station:TCOON:518:1,2016-05-08T13:18:00Z,29.5150,-94.5133,1.727,1111122 
TCOON,ioos:station:TCOON:518:1,2016-05-08T14:18:00Z,29.5150,-94.5133,1.72,1111122 
TCOON,ioos:station:TCOON:518:1,2016-05-08T15:18:00Z,29.5150,-94.5133,1.737,1111122 
TCOON,ioos:station:TCOON:518:1,2016-05-08T16:18:00Z,29.5150,-94.5133,1.757,1111122 
TCOON,ioos:station:TCOON:518:1,2016-05-08T17:18:00Z,29.5150,-94.5133,1.708,1111122 
TCOON,ioos:station:TCOON:518:1,2016-05-08T18:18:00Z,29.5150,-94.5133,1.681,1111122 
TCOON,ioos:station:TCOON:518:1,2016-05-08T19:18:00Z,29.5150,-94.5133,1.726,1111122 
TCOON,ioos:station:TCOON:518:1,2016-05-08T20:18:00Z,29.5150,-94.5133,1.782,1111122 
TCOON,ioos:station:TCOON:518:1,2016-05-08T21:18:00Z,29.5150,-94.5133,1.781,1111122 
TCOON,ioos:station:TCOON:518:1,2016-05-08T22:18:00Z,29.5150,-94.5133,1.769,1111122 
TCOON,ioos:station:TCOON:518:1,2016-05-08T23:18:00Z,29.5150,-94.5133,1.735,1111122 
TCOON,ioos:station:TCOON:518:1,2016-05-09T00:18:00Z,29.5150,-94.5133,1.705,1111122 
TCOON,ioos:station:TCOON:518:1,2016-05-09T01:18:00Z,29.5150,-94.5133,1.667,1111122 
TCOON,ioos:station:TCOON:518:1,2016-05-09T02:18:00Z,29.5150,-94.5133,1.587,1111122 
TCOON,ioos:station:TCOON:518:1,2016-05-09T03:18:00Z,29.5150,-94.5133,1.547,1111122 
TCOON,ioos:station:TCOON:518:1,2016-05-09T04:18:00Z,29.5150,-94.5133,1.523,1111122 
TCOON,ioos:station:TCOON:518:1,2016-05-09T05:18:00Z,29.5150,-94.5133,1.458,1111122 
TCOON,ioos:station:TCOON:518:1,2016-05-09T06:18:00Z,29.5150,-94.5133,1.378,1111122 
TCOON,ioos:station:TCOON:518:1,2016-05-09T07:18:00Z,29.5150,-94.5133,1.354,1111122 
TCOON,ioos:station:TCOON:518:1,2016-05-09T08:18:00Z,29.5150,-94.5133,1.344,1111122 
TCOON,ioos:station:TCOON:518:1,2016-05-09T09:18:00Z,29.5150,-94.5133,1.322,1111122 
TCOON,ioos:station:TCOON:518:1,2016-05-09T10:18:00Z,29.5150,-94.5133,1.409,1111122 
TCOON,ioos:station:TCOON:518:1,2016-05-09T11:18:00Z,29.5150,-94.5133,1.501,1111122 
TCOON,ioos:station:TCOON:518:1,2016-05-09T12:18:00Z,29.5150,-94.5133,1.677,1111122 
TCOON,ioos:station:TCOON:518:1,2016-05-09T13:18:00Z,29.5150,-94.5133,1.709,1111122 
TCOON,ioos:station:TCOON:518:1,2016-05-09T14:18:00Z,29.5150,-94.5133,1.794,1111122 
TCOON,ioos:station:TCOON:518:1,2016-05-09T15:18:00Z,29.5150,-94.5133,1.766,1111122 
TCOON,ioos:station:TCOON:518:1,2016-05-09T16:18:00Z,29.5150,-94.5133,1.668,1111122 
TCOON,ioos:station:TCOON:518:1,2016-05-09T17:18:00Z,29.5150,-94.5133,1.74,1111122 
TCOON,ioos:station:TCOON:518:1,2016-05-09T18:18:00Z,29.5150,-94.5133,1.875,1111122 
TCOON,ioos:station:TCOON:518:1,2016-05-09T19:18:00Z,29.5150,-94.5133,2.061,1111122 
TCOON,ioos:station:TCOON:518:1,2016-05-09T20:18:00Z,29.5150,-94.5133,2.176,1111122 
TCOON,ioos:station:TCOON:518:1,2016-05-09T21:18:00Z,29.5150,-94.5133,2.218,1111122 
TCOON,ioos:station:TCOON:518:1,2016-05-09T22:18:00Z,29.5150,-94.5133,2.141,1111122 
TCOON,ioos:station:TCOON:518:1,2016-05-09T23:18:00Z,29.5150,-94.5133,1.979,1111122 
TCOON,ioos:station:TCOON:518:1,2016-05-10T00:18:00Z,29.5150,-94.5133,1.88,1111122 
TCOON,ioos:station:TCOON:518:1,2016-05-10T01:18:00Z,29.5150,-94.5133,1.804,1111122 
TCOON,ioos:station:TCOON:518:1,2016-05-10T02:18:00Z,29.5150,-94.5133,1.798,1111122 
TCOON,ioos:station:TCOON:518:1,2016-05-10T03:18:00Z,29.5150,-94.5133,1.793,1111122 
TCOON,ioos:station:TCOON:518:1,2016-05-10T04:18:00Z,29.5150,-94.5133,1.711,1111122 
TCOON,ioos:station:TCOON:518:1,2016-05-10T05:18:00Z,29.5150,-94.5133,1.592,1111122 
TCOON,ioos:station:TCOON:518:1,2016-05-10T06:18:00Z,29.5150,-94.5133,1.492,1111122 
TCOON,ioos:station:TCOON:518:1,2016-05-10T07:18:00Z,29.5150,-94.5133,1.442,1111122 
TCOON,ioos:station:TCOON:518:1,2016-05-10T08:18:00Z,29.5150,-94.5133,1.403,1111122 
TCOON,ioos:station:TCOON:518:1,2016-05-10T09:18:00Z,29.5150,-94.5133,1.384,1111122 
TCOON,ioos:station:TCOON:518:1,2016-05-10T10:18:00Z,29.5150,-94.5133,1.371,1111122 
TCOON,ioos:station:TCOON:518:1,2016-05-10T11:18:00Z,29.5150,-94.5133,1.451,1111122 
TCOON,ioos:station:TCOON:518:1,2016-05-10T12:18:00Z,29.5150,-94.5133,1.567,1111122 
TCOON,ioos:station:TCOON:518:1,2016-05-10T13:18:00Z,29.5150,-94.5133,1.621,1111122 
TCOON,ioos:station:TCOON:518:1,2016-05-10T14:18:00Z,29.5150,-94.5133,1.659,1111122 
TCOON,ioos:station:TCOON:518:1,2016-05-10T15:18:00Z,29.5150,-94.5133,1.701,1111122 
TCOON,ioos:station:TCOON:518:1,2016-05-10T16:18:00Z,29.5150,-94.5133,1.771,1111122 
TCOON,ioos:station:TCOON:518:1,2016-05-10T17:18:00Z,29.5150,-94.5133,1.827,1111122 
TCOON,ioos:station:TCOON:518:1,2016-05-10T18:18:00Z,29.5150,-94.5133,1.852,1111122 
TCOON,ioos:station:TCOON:518:1,2016-05-10T19:18:00Z,29.5150,-94.5133,1.844,1111122 
TCOON,ioos:station:TCOON:518:1,2016-05-10T20:18:00Z,29.5150,-94.5133,1.882,1111122 
TCOON,ioos:station:TCOON:518:1,2016-05-10T21:18:00Z,29.5150,-94.5133,1.896,1111122 
TCOON,ioos:station:TCOON:518:1,2016-05-10T22:18:00Z,29.5150,-94.5133,1.923,1111122 
TCOON,ioos:station:TCOON:518:1,2016-05-10T23:18:00Z,29.5150,-94.5133,1.897,1111122 
TCOON,ioos:station:TCOON:518:1,2016-05-11T00:18:00Z,29.5150,-94.5133,1.825,1111122 
TCOON,ioos:station:TCOON:518:1,2016-05-11T01:18:00Z,29.5150,-94.5133,1.748,1111122 
TCOON,ioos:station:TCOON:518:1,2016-05-11T02:24:00Z,29.5150,-94.5133,1.69,1111122 
TCOON,ioos:station:TCOON:518:1,2016-05-11T03:24:00Z,29.5150,-94.5133,1.638,1111122 
TCOON,ioos:station:TCOON:518:1,2016-05-11T04:18:00Z,29.5150,-94.5133,1.617,1111122 
TCOON,ioos:station:TCOON:518:1,2016-05-11T05:18:00Z,29.5150,-94.5133,1.574,1111122 
TCOON,ioos:station:TCOON:518:1,2016-05-11T06:18:00Z,29.5150,-94.5133,1.537,1111122 
TCOON,ioos:station:TCOON:518:1,2016-05-11T07:18:00Z,29.5150,-94.5133,1.513,1111122 
TCOON,ioos:station:TCOON:518:1,2016-05-11T08:18:00Z,29.5150,-94.5133,1.466,1111122 
TCOON,ioos:station:TCOON:518:1,2016-05-11T09:18:00Z,29.5150,-94.5133,1.437,1111122 
TCOON,ioos:station:TCOON:518:1,2016-05-11T10:18:00Z,29.5150,-94.5133,1.379,1111122 
TCOON,ioos:station:TCOON:518:1,2016-05-11T11:18:00Z,29.5150,-94.5133,1.352,1111122 
TCOON,ioos:station:TCOON:518:1,2016-05-11T15:18:00Z,29.5150,-94.5133,1.613,1111122 
TCOON,ioos:station:TCOON:518:1,2016-05-11T17:18:00Z,29.5150,-94.5133,1.714,1111122 
TCOON,ioos:station:TCOON:518:1,2016-05-11T18:18:00Z,29.5150,-94.5133,1.666,1111122 
TCOON,ioos:station:TCOON:518:1,2016-05-11T19:42:00Z,29.5150,-94.5133,1.747,1111122 
TCOON,ioos:station:TCOON:518:1,2016-05-11T20:30:00Z,29.5150,-94.5133,1.809,1111122 
TCOON,ioos:station:TCOON:518:1,2016-05-11T21:18:00Z,29.5150,-94.5133,1.851,1111122 
TCOON,ioos:station:TCOON:518:1,2016-05-11T22:18:00Z,29.5150,-94.5133,1.842,1111122 
TCOON,ioos:station:TCOON:518:1,2016-05-11T23:18:00Z,29.5150,-94.5133,1.8,1111122 
TCOON,ioos:station:TCOON:518:1,2016-05-12T00:18:00Z,29.5150,-94.5133,1.727,1111122 
TCOON,ioos:station:TCOON:518:1,2016-05-12T01:18:00Z,29.5150,-94.5133,1.665,1111122 
TCOON,ioos:station:TCOON:518:1,2016-05-12T02:18:00Z,29.5150,-94.5133,1.621,1111122 
TCOON,ioos:station:TCOON:518:1,2016-05-12T03:18:00Z,29.5150,-94.5133,1.607,1111122 
TCOON,ioos:station:TCOON:518:1,2016-05-12T04:18:00Z,29.5150,-94.5133,1.59,1111122 
TCOON,ioos:station:TCOON:518:1,2016-05-12T05:18:00Z,29.5150,-94.5133,1.564,1111122 
TCOON,ioos:station:TCOON:518:1,2016-05-12T06:18:00Z,29.5150,-94.5133,1.526,1111122 
TCOON,ioos:station:TCOON:518:1,2016-05-12T07:18:00Z,29.5150,-94.5133,1.474,1111122 
TCOON,ioos:station:TCOON:518:1,2016-05-12T08:18:00Z,29.5150,-94.5133,1.428,1111122 
TCOON,ioos:station:TCOON:518:1,2016-05-12T09:18:00Z,29.5150,-94.5133,1.402,1111122 
TCOON,ioos:station:TCOON:518:1,2016-05-12T10:18:00Z,29.5150,-94.5133,1.401,1111122 
TCOON,ioos:station:TCOON:518:1,2016-05-12T11:18:00Z,29.5150,-94.5133,1.437,1111122 
TCOON,ioos:station:TCOON:518:1,2016-05-12T12:18:00Z,29.5150,-94.5133,1.434,1111122 
TCOON,ioos:station:TCOON:518:1,2016-05-12T13:18:00Z,29.5150,-94.5133,1.505,1111122 
TCOON,ioos:station:TCOON:518:1,2016-05-12T14:18:00Z,29.5150,-94.5133,1.548,1111122 
TCOON,ioos:station:TCOON:518:1,2016-05-12T15:18:00Z,29.5150,-94.5133,1.586,1111122 
TCOON,ioos:station:TCOON:518:1,2016-05-12T16:18:00Z,29.5150,-94.5133,1.652,1111122 
TCOON,ioos:station:TCOON:518:1,2016-05-12T17:18:00Z,29.5150,-94.5133,1.695,1111122 
TCOON,ioos:station:TCOON:518:1,2016-05-12T18:18:00Z,29.5150,-94.5133,1.742,1111122 
TCOON,ioos:station:TCOON:518:1,2016-05-12T19:18:00Z,29.5150,-94.5133,1.772,1111122 
TCOON,ioos:station:TCOON:518:1,2016-05-12T20:18:00Z,29.5150,-94.5133,1.76,1111122 
TCOON,ioos:station:TCOON:518:1,2016-05-12T21:18:00Z,29.5150,-94.5133,1.768,1111122 
TCOON,ioos:station:TCOON:518:1,2016-05-12T22:18:00Z,29.5150,-94.5133,1.73,1111122 
TCOON,ioos:station:TCOON:518:1,2016-05-12T23:18:00Z,29.5150,-94.5133,1.674,1111122 
TCOON,ioos:station:TCOON:518:1,2016-05-13T00:18:00Z,29.5150,-94.5133,1.617,1111122 